Weather History for Livingston, MT

Change the Weather History Date:

Thursday, April 24, 2014

  Actual Average Record
Temperature  
Mean Temperature 47 °F 44 °F  
Max Temperature 57 °F 58 °F 81 °F (1962)
Min Temperature 36 °F 31 °F 20 °F (1960)
Degree Days  
Heating Degree Days 18 21  
Month to date heating degree days 478 570  
Since 1 July heating degree days 6650 6829  
Cooling Degree Days 0 0  
Month to date cooling degree days 0 0  
Year to date cooling degree days 0 0  
Moisture  
Dew Point 24 °F    
Average Humidity 62    
Maximum Humidity 92    
Minimum Humidity 31    
Precipitation  
Precipitation 0.04 in 0.07 in 1.04 in (1971)
Month to date precipitation 0.92 1.34  
Year to date precipitation 4.00 3.17  
Sea Level Pressure  
Sea Level Pressure 29.79 in    
Wind  
Wind Speed 26 mph (WSW)    
Max Wind Speed 45 mph    
Max Gust Speed 58 mph    
Visibility 10 miles    
Events Rain    
T = Trace of Precipitation, MM = Missing Value Source: NWS Daily Summary

Daily Weather History Graph

Daily Weather History Graph

Search for Another Location

Airport:

Trip Planner

Search our weather history database for the weather conditions in past years. The results will help you decide how hot, cold, wet, or windy it might be!

Date:

Astronomy

Apr. 24, 2014 Rise Set
Actual Time 6:20 AM MDT 8:20 PM MDT
Civil Twilight 5:48 AM MDT 8:52 PM MDT
Nautical Twilight 5:09 AM MDT 9:31 PM MDT
Astronomical Twilight 4:25 AM MDT 10:15 PM MDT
Moon 3:49 AM MDT (4/24) 3:25 PM MDT (4/24)
Length of Visible Light 15h 03m
Length of Day
13h 59m
Waning Crescent, 24% of the Moon is Illuminated
Apr 24
Waning Crescent
Apr 29
New
May 6
First Quarter
May 14
Full
May 21
Last Quarter

Hourly Weather History & Observations

Time (MDT) Temp. Windchill Dew Point Humidity Pressure Visibility Wind Dir Wind Speed Gust Speed Precip Events Conditions
12:53 AM 44.1 °F 36.2 °F 19.0 °F 37% 29.81 in 10.0 mi West 18.4 mph - N/A   Overcast
1:53 AM 46.0 °F 37.8 °F 17.1 °F 31% 29.80 in 10.0 mi WSW 23.0 mph 36.8 mph N/A   Overcast
2:53 AM 45.0 °F 36.2 °F 18.0 °F 34% 29.81 in 10.0 mi WSW 24.2 mph 31.1 mph N/A   Overcast
3:53 AM 45.0 °F 36.2 °F 18.0 °F 34% 29.79 in 10.0 mi SW 24.2 mph 35.7 mph N/A   Overcast
4:53 AM 43.0 °F 32.4 °F 19.9 °F 40% 29.79 in 10.0 mi SW 31.1 mph 42.6 mph N/A   Scattered Clouds
5:53 AM 42.1 °F 30.6 °F 21.0 °F 43% 29.77 in 10.0 mi WSW 34.5 mph 51.8 mph N/A   Clear
6:53 AM 42.1 °F 31.1 °F 21.0 °F 43% 29.79 in 10.0 mi SW 31.1 mph 39.1 mph N/A   Clear
7:53 AM 45.0 °F 34.1 °F 21.0 °F 39% 29.82 in 10.0 mi SW 38.0 mph 47.2 mph N/A   Clear
8:53 AM 45.0 °F 35.4 °F 21.0 °F 39% 29.80 in 10.0 mi SW 28.8 mph 47.2 mph N/A   Clear
9:53 AM 46.9 °F - 21.9 °F 37% 29.79 in 10.0 mi SW 36.8 mph 43.7 mph N/A   Overcast
10:53 AM 51.1 °F - 23.0 °F 33% 29.80 in 10.0 mi SW 31.1 mph 36.8 mph N/A   Mostly Cloudy
11:53 AM 52.0 °F - 24.1 °F 34% 29.79 in 10.0 mi SW 31.1 mph 35.7 mph N/A   Partly Cloudy
12:53 PM 51.1 °F - 26.1 °F 38% 29.77 in 10.0 mi WSW 38.0 mph 44.9 mph N/A   Overcast
1:53 PM 51.1 °F - 28.9 °F 43% 29.76 in 10.0 mi SW 36.8 mph 51.8 mph N/A   Overcast
2:53 PM 52.0 °F - 28.9 °F 41% 29.76 in 10.0 mi SW 32.2 mph 47.2 mph N/A   Scattered Clouds
3:53 PM 55.9 °F - 30.0 °F 37% 29.73 in 10.0 mi SW 24.2 mph 40.3 mph N/A   Partly Cloudy
4:53 PM 54.0 °F - 28.0 °F 37% 29.73 in 10.0 mi West 21.9 mph 34.5 mph N/A   Overcast
5:53 PM 54.0 °F - 28.9 °F 38% 29.75 in 10.0 mi WSW 26.5 mph 35.7 mph N/A   Overcast
6:53 PM 53.1 °F - 28.9 °F 40% 29.75 in 10.0 mi SW 24.2 mph 36.8 mph N/A   Mostly Cloudy
7:53 PM 46.9 °F - - N/A% 29.81 in 9.0 mi West 15.0 mph 25.3 mph 0.04 in Rain Light Rain
8:53 PM 42.1 °F 35.2 °F - N/A% 29.84 in 10.0 mi NW 12.7 mph - 0.00 in   Clear
9:53 PM 39.9 °F 32.5 °F - N/A% 29.84 in 10.0 mi NNW 12.7 mph - N/A   Clear
10:53 PM 37.9 °F 30.9 °F - N/A% 29.83 in 10.0 mi NNW 10.4 mph - N/A   Partly Cloudy
11:53 PM 36.0 °F 28.0 °F 34.0 °F 93% 29.81 in 10.0 mi NW 11.5 mph - N/A   Clear